Weather History for Punta Gorda, FL

Change the Weather History Date:

Wednesday, November 27, 2013

  Actual Average Record
Temperature  
Mean Temperature 64 °F -  
Max Temperature 75 °F 76 °F 82 °F (2007)
Min Temperature 50 °F 53 °F 39 °F (2008)
Degree Days  
Heating Degree Days 1    
Growing Degree Days 14 (Base 50)    
Moisture  
Dew Point 62 °F    
Average Humidity 78    
Maximum Humidity 93    
Minimum Humidity 46    
Precipitation  
Precipitation 0.00 in - - ()
Sea Level Pressure  
Sea Level Pressure 29.93 in    
Wind  
Wind Speed 13 mph (WNW)    
Max Wind Speed 21 mph    
Max Gust Speed 30 mph    
Visibility 9 miles    
Events Rain    
Averages and records for this station are not official NWS values.
T = Trace of Precipitation, MM = Missing Value Source: NWS Daily Summary

Daily Weather History Graph

Daily Weather History Graph

Search for Another Location

Airport:

Trip Planner

Search our weather history database for the weather conditions in past years. The results will help you decide how hot, cold, wet, or windy it might be!

Date:

Astronomy

Nov. 27, 2013 Rise Set
Actual Time 6:57 AM EST 5:34 PM EST
Civil Twilight 6:31 AM EST 5:59 PM EST
Nautical Twilight 6:03 AM EST 6:27 PM EST
Astronomical Twilight 5:35 AM EST 6:55 PM EST
Moon 1:27 AM EST (11/27) 1:44 PM EST (11/27)
Length of Visible Light 11h 27m
Length of Day
10h 37m
Waning Crescent, 32% of the Moon is Illuminated
Nov 27
Waning Crescent
Dec 2
New
Dec 9
First Quarter
Dec 17
Full
Dec 25
Last Quarter

Hourly Weather History & Observations

Time (EST) Temp. Dew Point Humidity Pressure Visibility Wind Dir Wind Speed Gust Speed Precip Events Conditions
12:53 AM 73.9 °F 71.1 °F 91% 29.83 in 5.0 mi SSW 13.8 mph 23.0 mph 0.00 in Rain Rain
1:08 AM 73.0 °F 71.1 °F 93% 29.81 in 7.0 mi South 11.5 mph - 0.00 in Rain Light Rain
1:33 AM 73.9 °F 72.0 °F 93% 29.82 in 5.0 mi SW 10.4 mph - 0.00 in Rain Light Rain
1:53 AM 73.0 °F 71.1 °F 93% 29.81 in 4.0 mi SSW 11.5 mph - N/A Rain Rain
2:53 AM 73.0 °F 71.1 °F 93% 29.80 in 10.0 mi SSW 10.4 mph - N/A   Overcast
3:06 AM 73.9 °F 72.0 °F 93% 29.80 in 10.0 mi SW 13.8 mph - N/A   Overcast
3:22 AM 73.9 °F 72.0 °F 93% 29.80 in 10.0 mi SW 9.2 mph - N/A   Overcast
3:31 AM 73.9 °F 72.0 °F 93% 29.80 in 10.0 mi SW 11.5 mph - N/A   Overcast
3:38 AM 73.9 °F 72.0 °F 93% 29.80 in 10.0 mi WSW 10.4 mph - N/A   Overcast
3:53 AM 73.9 °F 71.1 °F 91% 29.81 in 5.0 mi West 12.7 mph 20.7 mph N/A Rain Rain
4:05 AM 73.0 °F 71.1 °F 93% 29.80 in 9.0 mi West 8.1 mph - N/A Rain Light Rain
4:22 AM 73.0 °F 70.0 °F 90% 29.80 in 10.0 mi West 12.7 mph - N/A   Overcast
4:53 AM 73.0 °F 70.0 °F 90% 29.82 in 10.0 mi West 12.7 mph - N/A   Overcast
5:53 AM 72.0 °F 66.0 °F 81% 29.84 in 10.0 mi WNW 13.8 mph 24.2 mph N/A   Mostly Cloudy
6:53 AM 71.1 °F 66.0 °F 84% 29.87 in 10.0 mi WNW 6.9 mph - N/A   Mostly Cloudy
7:53 AM 71.1 °F 64.0 °F 78% 29.89 in 10.0 mi West 13.8 mph - N/A   Mostly Cloudy
8:19 AM 71.1 °F 63.0 °F 75% 29.90 in 10.0 mi WNW 20.7 mph 29.9 mph N/A   Overcast
8:28 AM 70.0 °F 62.1 °F 76% 29.90 in 10.0 mi WNW 17.3 mph 28.8 mph N/A   Mostly Cloudy
8:53 AM 71.1 °F 62.1 °F 73% 29.93 in 10.0 mi WNW 17.3 mph 24.2 mph N/A   Scattered Clouds
9:53 AM 73.0 °F 61.0 °F 66% 29.95 in 10.0 mi NW 15.0 mph - N/A   Scattered Clouds
10:53 AM 72.0 °F 60.1 °F 66% 29.96 in 10.0 mi WNW 17.3 mph 26.5 mph N/A   Mostly Cloudy
11:53 AM 75.9 °F 57.9 °F 54% 29.95 in 10.0 mi NW 17.3 mph - 0.00 in   Mostly Cloudy
12:53 PM 75.0 °F 55.0 °F 50% 29.95 in 10.0 mi NW 17.3 mph 24.2 mph N/A   Mostly Cloudy
1:53 PM 75.9 °F 54.0 °F 46% 29.94 in 10.0 mi WNW 17.3 mph 24.2 mph N/A   Partly Cloudy
2:53 PM 72.0 °F 55.9 °F 57% 29.96 in 10.0 mi NNW 15.0 mph 24.2 mph N/A   Mostly Cloudy
3:53 PM 69.1 °F 55.9 °F 63% 29.98 in 10.0 mi NNW 19.6 mph - N/A   Mostly Cloudy
4:53 PM 64.9 °F 54.0 °F 68% 30.01 in 10.0 mi NNW 13.8 mph - N/A   Mostly Cloudy
5:53 PM 64.0 °F 53.1 °F 67% 30.05 in 10.0 mi North 12.7 mph - N/A   Overcast
6:53 PM 63.0 °F 51.1 °F 65% 30.08 in 10.0 mi NNW 12.7 mph 23.0 mph N/A   Overcast
7:53 PM 61.0 °F 50.0 °F 67% 30.12 in 10.0 mi North 11.5 mph - N/A   Overcast
8:53 PM 57.9 °F 48.0 °F 70% 30.15 in 10.0 mi North 12.7 mph - N/A   Clear
9:53 PM 55.0 °F 48.0 °F 77% 30.18 in 10.0 mi North 8.1 mph - N/A   Clear
10:53 PM 53.1 °F 46.0 °F 77% 30.20 in 10.0 mi North 8.1 mph - N/A   Clear
11:53 PM 50.0 °F 44.1 °F 80% 30.22 in 10.0 mi North 8.1 mph - N/A   Clear